• In Czech Republic
  • List of Countries
  • For 7 days
  • Water Temperature
  • Satellite Maps
  • Weather Map
  • Weather Widgets
  • user-avatar
    Login

    Hourly Weather Ali Bayramli

    Today, 29 June, Thursday

    Time Temperature Precipitation Wind Pressure Humidity
    00:00 +28°C° 0 mm 2 mps 755 mmHg 39%
    01:00 +28°C° 0 mm 2 mps 755 mmHg 41%
    02:00 +27°C° 0 mm 2 mps 755 mmHg 43%
    03:00 +27°C° 0 mm 3 mps 754 mmHg 44%
    04:00 +27°C° 0 mm 3 mps 754 mmHg 43%
    05:00 +28°C° 0 mm 3 mps 755 mmHg 43%
    06:00 +28°C° 0 mm 3 mps 755 mmHg 42%
    07:00 +30°C° 0.1 mm 2 mps 755 mmHg 37%
    08:00 +32°C° 0.1 mm 2 mps 755 mmHg 31%
    09:00 +35°C° 0 mm 2 mps 755 mmHg 26%
    10:00 +36°C° 0 mm 2 mps 755 mmHg 23%
    11:00 +37°C° 0 mm 2 mps 755 mmHg 20%
    12:00 +38°C° 0 mm 2 mps 754 mmHg 17%
    13:00 +39°C° 0 mm 3 mps 754 mmHg 17%
    14:00 +40°C° 0 mm 4 mps 754 mmHg 17%
    15:00 +40°C° 0 mm 5 mps 754 mmHg 16%
    16:00 +39°C° 0 mm 5 mps 753 mmHg 17%
    17:00 +37°C° 0 mm 5 mps 753 mmHg 18%
    18:00 +36°C° 0 mm 6 mps 753 mmHg 19%
    19:00 +34°C° 0 mm 5 mps 754 mmHg 21%
    20:00 +33°C° 0 mm 4 mps 754 mmHg 23%
    21:00 +30°C° 0 mm 4 mps 754 mmHg 26%
    22:00 +30°C° 0 mm 3 mps 754 mmHg 27%
    23:00 +29°C° 0 mm 3 mps 754 mmHg 28%

    Tomorrow, 30 June, Friday

    Time Temperature Precipitation Wind Pressure Humidity
    00:00 +28°C° 0 mm 3 mps 754 mmHg 29%
    01:00 +28°C° 0 mm 3 mps 754 mmHg 29%
    02:00 +28°C° 0 mm 3 mps 754 mmHg 29%
    03:00 +27°C° 0 mm 3 mps 754 mmHg 29%
    04:00 +28°C° 0 mm 3 mps 754 mmHg 29%
    05:00 +28°C° 0 mm 3 mps 754 mmHg 28%
    06:00 +29°C° 0 mm 3 mps 754 mmHg 27%
    07:00 +32°C° 0 mm 4 mps 754 mmHg 24%
    08:00 +34°C° 0 mm 4 mps 755 mmHg 21%
    09:00 +36°C° 0 mm 5 mps 755 mmHg 18%
    10:00 +37°C° 0 mm 5 mps 755 mmHg 18%
    11:00 +39°C° 0 mm 6 mps 754 mmHg 17%
    12:00 +40°C° 0 mm 6 mps 754 mmHg 16%
    13:00 +40°C° 0 mm 7 mps 754 mmHg 17%
    14:00 +40°C° 0 mm 8 mps 754 mmHg 17%
    15:00 +40°C° 0 mm 9 mps 754 mmHg 18%
    16:00 +39°C° 0 mm 9 mps 754 mmHg 19%
    17:00 +38°C° 0 mm 9 mps 754 mmHg 20%
    18:00 +37°C° 0 mm 9 mps 754 mmHg 21%
    19:00 +34°C° 0 mm 8 mps 754 mmHg 23%
    20:00 +33°C° 0 mm 7 mps 755 mmHg 25%
    21:00 +32°C° 0 mm 7 mps 755 mmHg 26%
    22:00 +30°C° 0 mm 6 mps 755 mmHg 28%
    23:00 +30°C° 0 mm 6 mps 756 mmHg 29%

    Day after tomorrow, 1 July, Saturday

    Time Temperature Precipitation Wind Pressure Humidity
    00:00 +29°C° 0 mm 6 mps 756 mmHg 31%
    01:00 +29°C° 0 mm 5 mps 756 mmHg 32%
    02:00 +28°C° 0 mm 5 mps 756 mmHg 34%
    03:00 +27°C° 0 mm 4 mps 756 mmHg 35%
    04:00 +28°C° 0 mm 4 mps 756 mmHg 34%
    05:00 +28°C° 0 mm 4 mps 756 mmHg 33%
    06:00 +29°C° 0 mm 4 mps 756 mmHg 32%
    07:00 +32°C° 0 mm 4 mps 756 mmHg 29%
    08:00 +34°C° 0 mm 5 mps 757 mmHg 26%
    09:00 +36°C° 0 mm 5 mps 757 mmHg 22%
    10:00 +37°C° 0 mm 5 mps 757 mmHg 21%
    11:00 +39°C° 0 mm 6 mps 757 mmHg 20%
    12:00 +40°C° 0 mm 6 mps 757 mmHg 19%
    13:00 +41°C° 0 mm 7 mps 756 mmHg 19%
    14:00 +41°C° 0 mm 7 mps 756 mmHg 19%
    15:00 +41°C° 0 mm 8 mps 756 mmHg 19%
    16:00 +40°C° 0 mm 8 mps 756 mmHg 21%
    17:00 +39°C° 0 mm 8 mps 756 mmHg 22%
    18:00 +38°C° 0 mm 7 mps 756 mmHg 23%
    19:00 +35°C° 0 mm 6 mps 756 mmHg 28%
    20:00 +33°C° 0 mm 5 mps 756 mmHg 32%
    21:00 +32°C° 0 mm 5 mps 757 mmHg 36%
    22:00 +30°C° 0 mm 4 mps 757 mmHg 39%
    23:00 +29°C° 0 mm 3 mps 757 mmHg 42%

    2 July, Sunday

    Time Temperature Precipitation Wind Pressure Humidity
    00:00 +28°C° 0 mm 3 mps 757 mmHg 45%
    01:00 +28°C° 0 mm 2 mps 757 mmHg 47%
    02:00 +27°C° 0 mm 2 mps 757 mmHg 49%
    03:00 +27°C° 0 mm 2 mps 756 mmHg 50%
    04:00 +27°C° 0 mm 2 mps 757 mmHg 48%
    05:00 +28°C° 0 mm 2 mps 757 mmHg 46%
    06:00 +29°C° 0 mm 2 mps 757 mmHg 44%
    07:00 +31°C° 0 mm 2 mps 757 mmHg 38%
    08:00 +34°C° 0 mm 2 mps 757 mmHg 32%
    09:00 +36°C° 0 mm 2 mps 757 mmHg 26%
    10:00 +37°C° 0 mm 2 mps 756 mmHg 23%
    11:00 +39°C° 0 mm 1 mps 756 mmHg 21%
    12:00 +40°C° 0 mm 1 mps 756 mmHg 18%
    13:00 +41°C° 0 mm 2 mps 755 mmHg 18%
    14:00 +42°C° 0 mm 4 mps 755 mmHg 18%
    15:00 +42°C° 0 mm 5 mps 754 mmHg 17%
    16:00 +41°C° 0 mm 5 mps 754 mmHg 20%
    17:00 +40°C° 0 mm 5 mps 754 mmHg 22%
    18:00 +37°C° 0 mm 5 mps 754 mmHg 25%
    19:00 +35°C° 0 mm 4 mps 754 mmHg 29%
    20:00 +33°C° 0 mm 3 mps 754 mmHg 34%
    21:00 +31°C° 0 mm 2 mps 754 mmHg 39%
    22:00 +30°C° 0 mm 2 mps 754 mmHg 40%
    23:00 +29°C° 0 mm 2 mps 754 mmHg 42%

    3 July, Monday

    Time Temperature Precipitation Wind Pressure Humidity
    00:00 +29°C° 0 mm 1 mps 754 mmHg 43%
    01:00 +28°C° 0 mm 1 mps 754 mmHg 43%
    02:00 +28°C° 0 mm 1 mps 753 mmHg 43%
    03:00 +28°C° 0 mm 1 mps 753 mmHg 43%
    04:00 +29°C° 0 mm 1 mps 753 mmHg 41%
    05:00 +29°C° 0 mm 1 mps 754 mmHg 39%
    06:00 +30°C° 0 mm 2 mps 754 mmHg 37%
    07:00 +32°C° 0 mm 2 mps 754 mmHg 34%
    08:00 +35°C° 0 mm 2 mps 753 mmHg 30%
    09:00 +36°C° 0 mm 2 mps 753 mmHg 26%
    10:00 +38°C° 0 mm 3 mps 753 mmHg 24%
    11:00 +39°C° 0 mm 3 mps 753 mmHg 23%
    12:00 +42°C° 0 mm 4 mps 752 mmHg 21%
    13:00 +42°C° 0 mm 4 mps 752 mmHg 20%
    14:00 +43°C° 0 mm 5 mps 752 mmHg 20%
    15:00 +44°C° 0 mm 6 mps 751 mmHg 20%
    16:00 +41°C° 0 mm 6 mps 751 mmHg 22%
    17:00 +40°C° 0 mm 6 mps 751 mmHg 25%
    18:00 +38°C° 0 mm 6 mps 751 mmHg 28%
    19:00 +36°C° 0 mm 5 mps 751 mmHg 34%
    20:00 +34°C° 0 mm 4 mps 751 mmHg 40%
    21:00 +31°C° 0 mm 3 mps 751 mmHg 46%
    22:00 +30°C° 0 mm 3 mps 751 mmHg 49%
    23:00 +29°C° 0 mm 2 mps 751 mmHg 51%

    4 July, Tuesday

    Time Temperature Precipitation Wind Pressure Humidity
    00:00 +29°C° 0 mm 2 mps 751 mmHg 53%
    01:00 +29°C° 0 mm 2 mps 751 mmHg 54%
    02:00 +28°C° 0 mm 1 mps 751 mmHg 54%
    03:00 +28°C° 0 mm 1 mps 751 mmHg 55%
    04:00 +28°C° 0 mm 1 mps 751 mmHg 54%
    05:00 +29°C° 0 mm 2 mps 751 mmHg 53%
    06:00 +30°C° 0 mm 2 mps 751 mmHg 53%
    07:00 +31°C° 0 mm 2 mps 751 mmHg 47%
    08:00 +34°C° 0 mm 2 mps 751 mmHg 41%
    09:00 +36°C° 0 mm 2 mps 751 mmHg 36%
    10:00 +38°C° 0 mm 2 mps 751 mmHg 31%
    11:00 +39°C° 0 mm 2 mps 750 mmHg 26%
    12:00 +42°C° 0 mm 3 mps 750 mmHg 22%
    13:00 +43°C° 0 mm 4 mps 750 mmHg 21%
    14:00 +43°C° 0 mm 4 mps 749 mmHg 20%
    15:00 +45°C° 0 mm 5 mps 749 mmHg 19%
    16:00 +42°C° 0 mm 5 mps 749 mmHg 21%
    17:00 +41°C° 0 mm 5 mps 749 mmHg 23%
    18:00 +39°C° 0 mm 5 mps 749 mmHg 25%
    19:00 +36°C° 0 mm 4 mps 749 mmHg 29%
    20:00 +34°C° 0 mm 3 mps 749 mmHg 33%
    21:00 +31°C° 0 mm 2 mps 750 mmHg 38%
    22:00 +31°C° 0 mm 2 mps 750 mmHg 39%
    23:00 +30°C° 0 mm 2 mps 749 mmHg 41%
    Show more